DG7AA-13 Weather Reports


Display with metric or nautical units.
time (UTC)temp
F
wind
direction
speed
MPH
gust
MPH
rain 1hr
in
rain 24hr
in
rain mn
in
humidity
%
barometer
mb
20260905144027 66 346 3.0 10.0 0.00 0.26 0.00 67
20260905143019 66 345 4.0 8.0 0.00 0.26 0.00 65
20260905142028 67 343 4.0 8.0 0.00 0.26 0.00 64
20260905141019 66 352 4.0 7.0 0.00 0.26 0.00 68
20260905140028 65 332 4.0 7.0 0.00 0.26 0.00 72
20260905135019 67 345 4.0 8.0 0.00 0.26 0.00 62
20260905134027 69 341 5.0 11.0 0.00 0.26 0.00 58
20260905133020 68 354 6.0 10.0 0.00 0.26 0.00 59
20260905132027 70 347 3.0 8.0 0.00 0.26 0.00 59
20260905131020 70 343 4.0 9.0 0.00 0.26 0.00 59
20260905130027 71 333 4.0 9.0 0.00 0.26 0.00 55
20260905125019 72 342 3.0 13.0 0.00 0.26 0.00 55
20260905124029 71 343 3.0 12.0 0.00 0.26 0.00 56
20260905123019 71 299 3.0 8.0 0.00 0.26 0.00 55
20260905122027 71 339 3.0 6.0 0.00 0.26 0.00 57
20260905121019 72 345 2.0 7.0 0.00 0.26 0.00 56
20260905120028 71 275 2.0 6.0 0.00 0.26 0.00 57
20260905115021 71 344 2.0 7.0 0.00 0.26 0.00 58
20260905114030 69 357 1.0 4.0 0.00 0.26 0.00 62
20260905113035 67 336 1.0 3.0 0.00 0.26 0.00 64
20260905112031 67 336 3.0 6.0 0.00 0.26 0.00 62
20260905111019 67 34 1.0 4.0 0.00 0.26 0.00 64
20260905110028 68 18 2.0 6.0 0.00 0.26 0.00 61
20260905105019 70 3 2.0 5.0 0.00 0.26 0.00 58
20260905104027 67 114 1.0 5.0 0.00 0.26 0.00 63
20260905103019 66 344 2.0 8.0 0.00 0.26 0.00 63
20260905102028 66 36 1.0 5.0 0.00 0.26 0.00 65
20260905101022 66 325 2.0 5.0 0.00 0.26 0.00 65
20260905100028 67 312 1.0 4.0 0.00 0.26 0.00 64
20260905095020 68 359 2.0 6.0 0.00 0.26 0.00 63
20260905094024 68 350 1.0 4.0 0.00 0.26 0.00 63
20260905093020 69 342 2.0 6.0 0.00 0.26 0.00 63
20260905092025 68 355 2.0 8.0 0.00 0.26 0.00 65
20260905091019 66 337 3.0 8.0 0.00 0.26 0.00 67
20260905090028 66 5 3.0 7.0 0.00 0.26 0.00 69
20260905085020 65 357 2.0 5.0 0.00 0.26 0.00 73
20260905084028 65 330 2.0 4.0 0.00 0.26 0.00 72
20260905083021 66 332 2.0 5.0 0.00 0.26 0.00 71
20260905082029 66 23 2.0 9.0 0.00 0.26 0.00 72
20260905081021 65 354 2.0 6.0 0.00 0.26 0.00 74
20260905080027 65 329 2.0 4.0 0.00 0.26 0.00 77
20260905075019 63 346 1.0 5.0 0.00 0.26 0.00 81
20260905074029 61 61 1.0 4.0 0.00 0.26 0.00 85
20260905073021 61 281 1.0 3.0 0.00 0.26 0.00 84
20260905072028 61 124 1.0 3.0 0.00 0.26 0.00 85
20260905071020 60 161 1.0 4.0 0.00 0.26 0.00 85
20260905070027 60 211 1.0 5.0 0.00 0.26 0.00 85
20260905065019 60 222 2.0 4.0 0.00 0.26 0.00 87
20260905064029 59 211 0.0 4.0 0.00 0.26 0.00 89
20260905063021 58 155 1.0 2.0 0.00 0.26 0.00 91
20260905062027 58 156 0.0 2.0 0.00 0.26 0.00 92
20260905061019 57 151 0.0 2.0 0.00 0.26 0.00 92
20260905060027 57 155 1.0 2.0 0.00 0.26 0.00 93
20260905055019 56 135 0.0 2.0 0.00 0.26 0.00 94
20260905054029 55 206 0.0 2.0 0.00 0.26 0.00 94
20260905053023 55 194 0.0 2.0 0.00 0.26 0.00 94
20260905052027 55 209 0.0 2.0 0.00 0.26 0.00 95
20260905051019 55 163 0.0 1.0 0.00 0.26 0.00 95
20260905050033 55 41 0.0 2.0 0.00 0.26 0.00 95
20260905045019 54 16 0.0 2.0 0.00 0.26 0.00 95
20260905044029 54 57 0.0 3.0 0.00 0.26 0.00 95
20260905043019 54 94 0.0 2.0 0.00 0.26 0.00 95
20260905042023 54 102 0.0 1.0 0.00 0.26 0.00 95
20260905041021 54 0.0 0.0 0.00 0.26 0.00 94
20260905040023 54 358 0.0 1.0 0.00 0.26 0.00 94
20260905035035 55 0.0 0.0 0.00 0.26 0.00 94
20260905034028 55 0.0 0.0 0.00 0.26 0.00 94
20260905033019 55 335 0.0 1.0 0.00 0.26 0.00 94
20260905032029 55 0.0 0.0 0.00 0.26 0.00 93
20260905031023 56 340 0.0 1.0 0.00 0.26 0.00 93
20260905030027 56 0.0 0.0 0.00 0.26 0.00 93
20260905025023 56 0.0 0.0 0.00 0.26 0.00 92
20260905024029 56 83 0.0 2.0 0.00 0.26 0.00 92
20260905023019 56 220 0.0 2.0 0.00 0.26 0.00 92
20260905022020 57 139 0.0 1.0 0.00 0.26 0.00 91
20260905021019 57 79 0.0 1.0 0.00 0.26 0.00 91
20260905020029 58 316 0.0 1.0 0.00 0.26 0.00 90
20260905015021 58 105 0.0 2.0 0.00 0.26 0.00 90
20260905014028 58 156 1.0 2.0 0.00 0.26 0.00 91
20260905013021 57 85 1.0 3.0 0.00 0.26 0.00 93
20260905012019 56 87 0.0 2.0 0.00 0.26 0.00 93
20260905011019 56 127 0.0 1.0 0.00 0.26 0.00 93
20260905010027 56 0.0 0.0 0.00 0.26 0.00 92
20260905005019 56 0.0 0.0 0.00 0.26 0.00 92
20260905004027 56 0.0 0.0 0.00 0.26 0.00 91
20260905003019 57 300 0.0 2.0 0.00 0.26 0.00 90
20260905002027 58 5 0.0 1.0 0.00 0.26 0.00 89
20260905001021 58 189 0.0 1.0 0.00 0.26 0.00 88
20260905000027 59 45 0.0 1.0 0.00 0.26 0.00 87
20260904235019 59 31 1.0 3.0 0.00 0.26 0.00 87
20260904234027 59 330 0.0 2.0 0.00 0.26 0.00 87
20260904233019 60 320 0.0 2.0 0.00 0.26 0.00 87
20260904232027 60 189 0.0 2.0 0.00 0.26 0.00 87
20260904231019 60 148 0.0 3.0 0.00 0.26 0.00 86
20260904230029 61 359 1.0 4.0 0.00 0.26 0.00 85
20260904225021 61 358 2.0 7.0 0.00 0.26 0.00 83
20260904224027 61 342 3.0 7.0 0.00 0.26 0.00 83
20260904223019 61 350 4.0 7.0 0.00 0.26 0.00 83
20260904222027 62 330 2.0 4.0 0.00 0.26 0.00 87
20260904221019 62 348 2.0 5.0 0.00 0.26 0.00 88
20260904220027 62 1 2.0 5.0 0.00 0.26 0.00 88
20260904215027 62 348 2.0 6.0 0.00 0.26 0.26 89
20260904214029 62 348 1.0 3.0 0.00 0.26 0.26 89
20260904213023 61 327 1.0 3.0 0.00 0.26 0.26 89
20260904212029 61 349 1.0 4.0 0.00 0.26 0.26 90
20260904211020 61 354 1.0 3.0 0.00 0.26 0.26 90
20260904210023 61 325 0.0 4.0 0.00 0.26 0.26 91
20260904205020 61 360 1.0 4.0 0.00 0.26 0.26 91
20260904204030 61 340 1.0 3.0 0.00 0.26 0.26 91
20260904203019 61 343 1.0 2.0 0.00 0.26 0.26 91
20260904202028 61 346 1.0 3.0 0.00 0.26 0.26 92
20260904201022 61 2 1.0 2.0 0.00 0.26 0.26 92
20260904200020 61 85 0.0 2.0 0.00 0.26 0.26 92
20260904195019 62 327 1.0 2.0 0.00 0.26 0.26 91
20260904194027 62 340 2.0 4.0 0.00 0.26 0.26 90
20260904193019 62 345 2.0 3.0 0.00 0.26 0.26 91
20260904192021 62 352 1.0 4.0 0.00 0.26 0.26 91
20260904191021 62 4 2.0 5.0 0.00 0.26 0.26 91
20260904190027 62 342 3.0 6.0 0.00 0.26 0.26 92
20260904185019 62 343 2.0 5.0 0.00 0.26 0.26 93
20260904184027 62 346 2.0 3.0 0.00 0.26 0.26 93
20260904183019 62 347 3.0 8.0 0.00 0.26 0.26 93
20260904182029 63 343 3.0 7.0 0.00 0.26 0.26 93
20260904181019 63 349 3.0 9.0 0.00 0.26 0.26 93
20260904180030 63 352 4.0 9.0 0.00 0.26 0.26 93
20260904175019 63 339 3.0 7.0 0.02 0.26 0.26 94
20260904174027 63 356 3.0 7.0 0.04 0.26 0.26 95
20260904173019 63 355 1.0 4.0 0.06 0.26 0.26 95
20260904172029 63 348 3.0 6.0 0.09 0.26 0.26 96
20260904171020 63 348 3.0 6.0 0.18 0.26 0.26 96
20260904170027 63 357 3.0 8.0 0.21 0.26 0.26 96
20260904165019 63 334 3.0 7.0 0.20 0.24 0.24 97
20260904164027 63 351 4.0 10.0 0.20 0.22 0.22 97
20260904163019 63 344 3.0 5.0 0.18 0.20 0.20 97
20260904162027 63 343 3.0 7.0 0.14 0.17 0.17 97
20260904161021 63 356 2.0 7.0 0.07 0.08 0.08 96
20260904160027 64 339 2.0 4.0 0.05 0.05 0.05 95
20260904155019 64 343 2.0 4.0 0.04 0.04 0.04 94
20260904154029 64 345 2.0 3.0 0.02 0.02 0.02 94
20260904153019 64 347 2.0 4.0 0.02 0.02 0.02 93
20260904152032 65 339 2.0 5.0 0.02 0.02 0.02 92
20260904151020 66 343 2.0 4.0 0.01 0.02 0.01 86
20260904150027 68 319 3.0 7.0 0.00 0.01 0.00 82
20260904145020 69 342 3.0 5.0 0.00 0.01 0.00 81